Temperature
-3 -3 -3 -3 -3 -4 -4 -3 -2 -2 -3 -2 -3 -3 -3 -3 -3 -3 -3 -3 -4 -4 -4 -4 -3 -3 -3 -3 -3 -3 -3 -3 -3 -3 -2 -2 -2 -2 -2 -2 -2 -2 -2 -2
-4 -3 -3 -3 -3 -4 -4 -4 -4 -3 -3 -3 -3 -3 -4 -4 -4 -4 -4 -4 -4 -4 -4 -4 -4 -4 -4 -4 -4 -4 -4 -4 -3 -3 -3 -3 -3 -3 -2 -3 -3 -3 -3 -3
-4 -4 -3 -3 -4 -4 -5 -5 -5 -4 -3 -5 -5 -5 -5 -4 -4 -4 -4 -4 -4 -4 -5 -5 -5 -5 -5 -5 -5 -5 -5 -4 -4 -4 -4 -4 -4 -3 -3 -3 -3 -3 -3 -4
-5 -4 -3 -2 -5 -5 -5 -6 -6 -5 -5 -6 -5 -4 -4 -4 -4 -4 -4 -5 -5 -5 -5 -5 -5 -5 -5 -5 -5 -5 -5 -5 -5 -5 -5 -5 -4 -4 -4 -4 -4 -4 -4 -4
-5 -5 -4 -4 -5 -6 -6 -5 -6 -6 -6 -6 -5 -5 -5 -4 -5 -5 -5 -5 -5 -5 -5 -6 -6 -6 -6 -6 -6 -6 -6 -6 -6 -6 -6 -5 -5 -5 -5 -5 -5 -5 -5 -5
-6 -4 -4 -3 -5 -6 -5 -5 -6 -6 -7 -7 -7 -6 -6 -5 -5 -5 -5 -6 -6 -6 -6 -6 -6 -6 -6 -6 -6 -6 -6 -6 -6 -6 -6 -6 -6 -6 -6 -6 -6 -6 -6 -6
-6 -5 -5 -5 -6 -5 -4 -4 -5 -6 -6 -7 -7 -6 -5 -5 -6 -6 -6 -6 -6 -6 -7 -7 -7 -7 -7 -7 -7 -7 -7 -7 -7 -7 -7 -7 -7 -7 -7 -7 -7 -7 -7 -7
-7 -6 -5 -6 -7 -6 -5 -5 -5 -5 -5 -6 -6 -6 -6 -6 -6 -6 -7 -7 -7 -7 -7 -7 -7 -7 -7 -7 -8 -8 -8 -8 -8 -8 -8 -8 -8 -8 -8 -8 -8 -8 -8 -8
-6 -5 -6 -6 -6 -5 -5 -5 -5 -5 -5 -6 -6 -6 -7 -7 -7 -7 -7 -7 -7 -8 -8 -8 -8 -8 -8 -8 -8 -8 -8 -8 -8 -8 -8 -8 -8 -8 -8 -8 -9 -9 -9 -8
-8 -8 -7 -6 -6 -5 -5 -6 -5 -6 -6 -6 -7 -7 -7 -7 -8 -8 -8 -8 -8 -8 -8 -8 -8 -8 -9 -9 -9 -9 -9 -9 -9 -9 -9 -9 -9 -9 -9 -9 -9 -9 -9 -9
-8 -9 -8 -6 -6 -6 -6 -6 -6 -6 -7 -7 -7 -7 -8 -8 -8 -8 -9 -9 -9 -9 -9 -9 -9 -9 -9 -9 -9 -9 -9 -9 -9 -9 -9 -9 -9 -9 -10 -10 -10 -10 -10 -10
-7 -7 -8 -7 -6 -6 -7 -7 -7 -7 -7 -7 -8 -8 -8 -8 -9 -9 -9 -9 -9 -9 -9 -9 -9 -9 -9 -10 -10 -10 -10 -10 -10 -10 -10 -10 -10 -10 -10 -10 -10 -10 -10 -11
-7 -7 -7 -7 -7 -7 -7 -8 -8 -8 -8 -8 -8 -9 -9 -9 -9 -9 -9 -9 -9 -10 -10 -10 -10 -10 -10 -10 -10 -10 -11 -11 -10 -10 -10 -11 -11 -10 -10 -10 -10 -10 -10 -11
-8 -8 -8 -8 -8 -8 -8 -8 -8 -8 -8 -9 -9 -9 -9 -9 -9 -9 -10 -10 -10 -10 -10 -10 -10 -10 -11 -11 -11 -11 -11 -11 -11 -11 -11 -11 -11 -11 -11 -11 -11 -11 -11 -11
-8 -9 -9 -9 -9 -9 -9 -9 -9 -9 -9 -9 -10 -10 -10 -10 -10 -10 -10 -10 -10 -11 -11 -11 -11 -11 -11 -11 -11 -11 -11 -11 -11 -11 -12 -12 -12 -12 -12 -12 -12 -12 -11 -11
-9 -9 -9 -9 -9 -10 -10 -10 -10 -10 -10 -10 -10 -10 -10 -10 -10 -11 -11 -11 -11 -11 -11 -11 -11 -11 -12 -12 -12 -12 -12 -12 -12 -12 -12 -12 -12 -12 -12 -12 -12 -12 -12 -12
-10 -10 -10 -10 -10 -10 -10 -10 -10 -11 -11 -11 -11 -11 -11 -11 -11 -11 -11 -11 -11 -12 -12 -12 -12 -12 -12 -12 -12 -12 -12 -12 -12 -13 -12 -13 -13 -13 -13 -13 -13 -13 -13 -13
-10 -10 -10 -10 -10 -11 -11 -11 -11 -11 -11 -11 -11 -11 -11 -11 -11 -11 -12 -12 -12 -12 -12 -12 -12 -13 -13 -13 -13 -13 -13 -13 -13 -13 -13 -13 -13 -13 -13 -13 -13 -13 -13 -13
-10 -10 -10 -10 -11 -11 -11 -11 -11 -12 -12 -12 -12 -12 -12 -12 -12 -12 -12 -12 -12 -13 -13 -13 -13 -13 -13 -13 -13 -14 -14 -14 -14 -14 -14 -14 -14 -14 -14 -14 -14 -14 -14 -14
-11 -11 -11 -11 -11 -11 -11 -12 -12 -12 -12 -12 -12 -12 -12 -12 -12 -13 -13 -13 -13 -13 -13 -14 -14 -14 -14 -14 -14 -14 -14 -14 -14 -14 -14 -14 -14 -14 -14 -14 -14 -14 -14 -14
-11 -11 -11 -11 -11 -12 -12 -12 -12 -12 -12 -13 -13 -13 -13 -13 -13 -13 -14 -14 -14 -14 -14 -14 -14 -14 -14 -14 -14 -14 -14 -14 -14 -14 -14 -14 -14 -14 -15 -15 -15 -15 -15 -14
-12 -12 -12 -12 -12 -12 -12 -12 -13 -13 -13 -13 -13 -13 -13 -13 -14 -14 -14 -14 -14 -15 -15 -15 -15 -15 -15 -15 -15 -15 -15 -15 -15 -15 -15 -15 -15 -15 -15 -15 -15 -15 -15 -15
-12 -12 -12 -12 -12 -13 -13 -13 -13 -13 -13 -13 -14 -14 -14 -14 -14 -15 -15 -15 -15 -15 -15 -15 -15 -15 -15 -15 -15 -15 -15 -15 -15 -15 -15 -15 -15 -15 -15 -15 -15 -15 -15 -15
-13 -13 -13 -13 -13 -13 -13 -13 -14 -14 -14 -14 -14 -14 -15 -15 -15 -15 -15 -15 -15 -15 -15 -15 -15 -15 -15 -15 -15 -15 -15 -15 -15 -15 -15 -15 -15 -15 -15 -15 -15 -15 -15 -15
-13 -13 -14 -14 -14 -14 -14 -14 -14 -14 -14 -15 -15 -15 -15 -15 -15 -15 -16 -16 -16 -16 -16 -16 -16 -16 -16 -16 -16 -16 -16 -16 -16 -16 -16 -16 -16 -16 -16 -16 -16 -16 -16 -16
-14 -14 -14 -14 -15 -15 -15 -15 -15 -15 -15 -15 -15 -15 -15 -16 -16 -16 -16 -16 -16 -16 -16 -16 -16 -16 -16 -16 -16 -16 -16 -16 -16 -16 -16 -16 -16 -16 -16 -16 -16 -16 -16 -16
-15 -15 -15 -15 -15 -15 -15 -15 -15 -16 -16 -16 -16 -16 -16 -16 -16 -16 -16 -16 -16 -16 -16 -16 -16 -16 -17 -17 -16 -16 -16 -16 -16 -16 -16 -16 -16 -16 -16 -16 -16 -16 -16 -16
Wind_Speed
5 5 3 4 5 5 7 7 8 8 8 9 5 5 4 3 2 1 1 1 1 1 2 2 2 2 2 3 3 3 2 2 3 3 3 2 2 2 2 2 2 2 2 3
4 3 3 4 6 7 8 6 8 8 10 7 4 2 2 2 2 2 3 3 3 2 2 2 3 3 3 3 3 2 2 3 3 3 3 3 2 2 2 2 2 2 2 3
4 4 3 6 7 8 5 5 6 10 9 3 3 3 4 3 3 3 3 3 3 3 3 3 3 3 2 3 3 2 2 3 3 3 3 3 3 2 3 3 2 2 3 3
1 2 5 7 2 5 6 6 6 6 5 4 5 5 4 2 3 4 4 4 4 3 3 3 2 2 2 2 2 2 2 3 3 3 3 3 3 3 3 3 3 3 3 3
2 3 7 6 3 4 5 6 5 7 6 4 2 2 3 2 2 3 3 3 3 2 2 2 2 2 2 2 2 2 3 3 3 3 3 3 3 3 3 3 3 3 3 3
3 3 6 6 2 2 3 5 4 5 6 3 1 2 4 2 2 3 2 2 1 1 1 1 2 1 1 2 2 3 4 4 3 3 3 3 3 3 3 3 3 3 3 3
5 6 7 5 2 3 4 6 2 4 5 4 5 5 4 3 3 2 2 2 1 1 1 2 2 1 1 2 3 4 4 4 3 3 3 3 3 3 2 2 2 2 3 4
4 5 8 3 4 6 6 1 1 3 3 4 4 3 3 2 2 2 2 2 1 1 2 2 1 1 2 3 4 3 3 3 3 3 3 3 2 2 2 2 2 2 2 3
8 7 3 4 5 3 1 2 3 3 3 3 3 4 3 3 2 2 2 2 1 1 2 3 2 1 1 3 3 3 3 3 4 4 3 3 3 2 2 1 1 2 2 3
4 6 5 4 3 2 2 3 3 3 3 3 4 4 3 3 2 2 2 2 1 1 1 3 3 3 2 3 3 2 3 3 3 3 3 3 2 2 2 1 2 2 3 3
5 6 5 4 4 4 3 3 3 3 3 4 4 4 3 3 3 2 2 2 1 1 2 3 3 3 3 3 2 2 3 3 3 3 3 3 3 2 3 2 3 3 3 3
7 5 4 5 3 2 3 3 3 3 2 2 3 4 3 3 2 2 2 1 2 2 2 2 2 3 3 3 2 2 2 3 2 2 2 2 3 3 5 5 7 7 7 6
5 3 4 4 3 1 2 3 3 3 3 3 3 3 3 2 2 1 2 2 2 2 2 2 3 3 3 3 2 2 2 3 2 2 2 3 3 3 3 5 6 6 7 8
3 1 3 3 3 2 2 2 1 1 2 2 2 1 1 1 1 1 2 2 2 2 2 2 3 3 4 3 2 2 2 4 3 2 2 3 3 3 3 3 4 4 6 8
3 2 3 3 2 1 1 0 1 2 2 2 1 1 1 1 2 3 3 2 2 2 2 2 3 4 4 3 3 3 3 2 2 2 2 3 3 3 3 3 3 4 4 5
2 2 2 2 2 2 1 1 2 3 2 2 2 2 2 1 2 2 2 2 1 3 3 3 4 4 4 3 2 2 2 4 4 2 2 2 2 2 3 3 3 3 4 4
2 3 3 3 4 3 3 3 3 3 2 2 2 2 1 1 2 2 3 3 2 3 3 3 4 4 3 3 3 2 2 3 4 3 2 3 2 3 3 3 3 3 4 5
4 4 4 4 4 4 4 3 3 3 3 3 2 1 1 1 2 3 3 3 3 3 4 4 4 4 3 3 3 2 2 2 2 2 2 3 3 2 3 3 3 4 4 5
2 2 3 3 3 3 3 3 3 2 2 2 1 2 2 3 3 3 2 2 2 4 4 4 6 4 3 4 4 2 2 2 2 3 3 4 3 3 3 3 3 4 4 4
2 2 2 2 2 2 2 2 1 1 2 1 1 2 2 3 2 2 2 2 3 4 4 5 4 3 3 4 4 2 2 2 3 3 3 3 3 3 3 3 4 4 4 4
2 2 2 2 2 1 1 1 1 1 2 1 2 2 3 3 2 2 2 3 4 4 4 6 3 3 3 4 4 2 2 2 3 3 3 3 3 3 4 4 4 4 4 5
2 1 2 2 1 2 2 1 1 1 1 2 2 2 2 3 3 3 3 3 4 6 4 3 3 5 5 4 1 1 2 2 3 3 3 3 4 4 4 4 4 4 4 5
2 2 2 2 2 2 2 1 1 1 2 2 2 3 3 3 3 2 3 3 3 6 4 3 6 7 6 2 1 2 2 3 3 4 4 4 4 4 4 5 4 4 5 5
1 2 2 1 1 1 2 3 2 2 2 2 3 3 2 2 3 3 3 6 7 6 4 6 8 7 6 1 2 2 3 4 4 4 4 4 4 4 4 5 5 5 5 6
1 1 1 1 1 1 2 2 2 2 2 2 3 3 2 2 3 3 3 3 6 6 4 6 8 7 4 2 3 3 3 4 4 4 3 4 4 4 5 5 5 5 5 6
1 1 1 1 1 2 2 2 2 2 2 2 3 3 3 2 3 3 3 3 4 6 4 4 4 5 4 3 4 4 4 5 5 4 4 4 5 5 5 5 6 5 6 6
2 2 2 2 2 2 2 2 2 3 3 3 4 3 3 3 3 3 3 3 3 4 4 4 4 4 4 4 4 4 4 4 4 4 4 4 4 5 5 6 5 6 6 7
Wind_Direction
248 257 224 234 241 205 206 216 220 240 245 260 256 256 267 276 287 288 297 294 279 284 299 314 324 325 325 324 327 328 333 331 318 316 316 311 300 289 290 288 278 266 265 269
274 268 244 266 262 229 228 234 239 259 268 269 275 278 277 269 256 268 288 288 299 305 306 301 305 309 318 320 321 332 330 322 326 332 333 330 323 318 311 300 292 283 256 255
264 300 337 274 243 214 216 214 206 233 252 289 295 282 269 254 239 261 276 286 289 286 282 287 291 300 302 310 321 333 325 320 322 324 324 321 323 333 324 311 294 284 277 262
251 14 247 244 209 193 207 236 220 234 260 256 255 273 272 235 226 263 283 285 283 281 289 297 303 313 310 316 324 325 320 319 322 321 319 319 323 316 311 309 298 285 287 284
182 241 271 284 242 174 193 258 229 233 255 268 284 317 292 256 246 262 266 272 270 272 285 300 305 311 324 332 337 333 320 313 312 312 313 317 314 306 303 301 301 296 291 293
176 212 244 248 241 180 126 275 246 212 233 237 126 271 271 289 310 309 310 309 310 319 336 318 313 314 326 326 336 321 312 308 306 309 311 307 300 295 292 287 284 294 298 297
206 229 260 252 233 121 167 249 249 204 216 200 205 228 267 304 318 323 326 327 334 332 314 296 305 323 329 328 312 308 311 312 314 314 308 299 299 302 294 289 294 295 295 298
183 216 253 210 142 183 218 257 220 226 219 216 235 261 279 292 300 315 328 334 339 338 326 323 322 333 323 314 311 316 317 319 320 319 316 318 312 310 306 295 298 299 297 301
198 217 252 183 197 223 198 224 240 232 235 221 239 255 271 278 271 279 287 307 321 313 325 328 328 330 305 309 316 322 328 326 325 325 324 317 310 307 312 313 300 297 293 296
244 261 257 238 243 262 235 235 249 243 241 221 232 243 251 258 272 279 288 300 318 327 325 323 327 332 306 306 316 320 320 318 319 323 323 321 313 303 298 293 291 291 288 289
253 274 295 276 245 248 253 261 267 261 240 228 221 238 233 238 252 261 297 316 310 287 290 301 315 320 317 317 320 318 311 310 317 321 318 320 316 299 292 269 267 277 272 274
241 244 227 261 271 233 235 253 253 249 262 249 224 227 227 235 242 251 273 290 299 292 290 294 305 311 313 311 304 297 306 312 312 313 314 315 317 319 313 305 305 304 298 291
245 265 242 267 287 249 242 257 260 242 240 255 252 228 220 236 244 250 275 284 280 281 284 294 302 306 310 307 300 284 282 295 296 303 307 308 307 312 319 325 322 319 316 315
262 283 281 271 269 280 264 273 296 297 280 257 243 231 214 240 264 273 280 281 287 292 297 302 301 301 305 305 298 294 291 294 298 290 292 296 300 303 305 311 320 323 324 324
272 252 253 275 298 309 307 315 318 301 305 308 286 243 226 239 267 284 296 304 318 315 308 306 301 302 311 305 299 300 299 291 287 287 290 292 297 300 301 306 310 315 323 327
280 298 288 282 284 298 312 285 267 273 277 277 272 266 262 261 280 295 306 308 294 295 301 301 296 300 309 305 304 302 292 293 299 294 293 295 297 297 300 304 308 311 314 318
231 263 264 274 275 277 267 259 258 264 268 267 267 275 296 317 314 313 318 320 300 288 290 288 292 301 305 297 287 287 289 290 301 302 294 290 290 290 291 293 297 302 306 309
227 236 234 238 247 258 265 264 268 272 270 269 281 289 274 270 276 287 299 315 320 314 303 297 296 302 300 294 281 279 284 286 284 283 287 287 288 287 289 289 294 301 309 314
268 262 262 260 249 242 247 258 266 270 279 277 268 270 267 268 270 278 294 305 299 299 304 304 308 320 307 294 298 271 273 279 284 286 285 285 296 294 289 287 291 295 298 304
311 302 292 291 282 252 249 254 256 273 278 268 280 294 298 291 283 283 286 279 272 274 288 295 300 296 291 286 293 272 259 264 270 276 281 278 279 283 286 287 288 291 294 297
321 324 325 320 317 311 281 254 237 259 277 263 255 271 283 289 287 278 278 290 295 288 292 299 307 293 288 285 283 264 257 266 270 269 272 274 277 278 281 284 286 289 291 295
306 311 313 319 329 322 320 306 261 263 285 286 279 277 282 289 292 289 270 263 285 299 308 294 288 286 292 295 282 265 268 271 273 273 272 272 271 272 275 278 279 283 285 288
301 302 304 305 301 307 327 330 303 280 275 276 276 275 273 273 273 273 290 289 288 296 305 285 289 297 301 303 279 271 270 268 267 267 267 267 267 267 270 273 274 277 281 285
311 314 313 323 352 354 332 322 320 308 290 286 287 284 281 286 291 274 270 298 311 307 301 295 302 306 312 314 280 272 270 269 268 267 267 268 268 268 268 270 273 276 278 281
330 334 338 343 336 311 304 316 328 329 327 321 315 309 301 280 274 295 300 298 305 315 313 308 311 312 318 300 284 276 273 270 270 269 265 270 270 270 270 271 270 273 276 278
347 335 320 308 296 301 306 310 312 311 314 315 315 315 313 306 294 296 302 302 298 309 313 308 306 308 307 297 289 282 278 282 287 283 272 269 268 268 270 271 271 271 273 275
1 354 347 348 342 329 315 305 300 301 299 292 299 306 309 310 309 306 302 301 302 303 302 303 300 297 296 294 292 287 282 279 278 276 274 270 269 270 269 268 269 269 271 272
Height
1505 1502 1503 1503 1503 1504 1504 1502 1500 1495 1493 1484 1484 1484 1483 1483 1482 1482 1481 1480 1479 1478 1478 1477 1477 1476 1475 1475 1474 1474 1473 1472 1472 1471 1471 1470 1470 1470 1470 1470 1471 1471 1470 1470
1505 1501 1501 1500 1498 1499 1499 1498 1497 1494 1489 1483 1482 1482 1481 1481 1480 1479 1478 1478 1477 1476 1476 1475 1474 1473 1473 1472 1471 1471 1470 1469 1468 1467 1467 1466 1466 1466 1466 1466 1466 1466 1466 1465
1505 1504 1500 1499 1493 1494 1494 1493 1492 1490 1484 1481 1481 1480 1479 1478 1478 1477 1476 1475 1474 1473 1473 1472 1472 1471 1470 1469 1469 1468 1467 1466 1465 1464 1463 1462 1462 1462 1461 1461 1461 1461 1461 1461
1507 1506 1502 1488 1486 1486 1488 1487 1486 1483 1480 1479 1479 1477 1476 1476 1475 1474 1474 1473 1472 1471 1470 1470 1469 1469 1468 1467 1466 1465 1464 1462 1461 1460 1460 1459 1458 1458 1457 1457 1457 1456 1456 1456
1508 1506 1497 1487 1484 1485 1487 1484 1480 1480 1478 1477 1477 1476 1474 1473 1473 1472 1472 1471 1470 1469 1468 1467 1467 1466 1465 1464 1463 1462 1460 1459 1458 1457 1456 1455 1454 1454 1453 1453 1452 1452 1452 1452
1506 1502 1495 1482 1481 1480 1483 1482 1475 1475 1475 1475 1476 1478 1473 1471 1470 1470 1469 1468 1467 1466 1465 1465 1464 1463 1462 1461 1459 1458 1457 1456 1455 1454 1453 1452 1451 1450 1450 1449 1448 1448 1448 1448
1502 1501 1488 1481 1479 1480 1485 1477 1473 1471 1472 1473 1473 1472 1471 1469 1468 1467 1466 1465 1464 1463 1463 1462 1461 1460 1459 1458 1457 1456 1455 1454 1453 1451 1450 1449 1448 1447 1446 1446 1445 1444 1444 1444
1500 1499 1488 1477 1477 1479 1474 1471 1470 1470 1470 1470 1469 1468 1468 1467 1466 1465 1463 1463 1462 1461 1460 1460 1459 1458 1456 1455 1454 1453 1452 1451 1450 1449 1447 1446 1445 1444 1443 1443 1442 1441 1440 1439
1486 1481 1474 1472 1471 1471 1470 1469 1469 1468 1468 1468 1467 1466 1465 1464 1463 1462 1462 1461 1460 1459 1458 1457 1457 1456 1454 1453 1452 1451 1449 1448 1447 1446 1445 1444 1443 1441 1440 1440 1439 1437 1437 1436
1481 1474 1471 1470 1469 1469 1468 1468 1467 1467 1466 1465 1464 1463 1463 1462 1461 1460 1459 1458 1458 1457 1455 1455 1454 1453 1452 1451 1449 1448 1447 1445 1444 1443 1442 1441 1440 1439 1438 1437 1436 1435 1434 1433
1477 1471 1468 1466 1466 1466 1466 1465 1464 1464 1463 1462 1461 1460 1460 1459 1458 1458 1457 1456 1455 1454 1453 1452 1452 1451 1450 1448 1447 1445 1444 1443 1441 1440 1439 1438 1438 1437 1435 1434 1434 1432 1431 1430
1470 1466 1467 1464 1463 1463 1463 1462 1462 1461 1460 1459 1459 1457 1457 1456 1456 1455 1454 1454 1453 1452 1451 1450 1449 1448 1447 1446 1445 1443 1441 1440 1439 1438 1437 1436 1434 1434 1433 1432 1431 1430 1429 1428
1464 1463 1463 1462 1461 1461 1460 1459 1459 1458 1457 1456 1455 1455 1454 1453 1453 1452 1452 1451 1450 1449 1448 1447 1446 1445 1444 1443 1442 1440 1439 1438 1436 1435 1434 1433 1432 1430 1429 1429 1428 1427 1425 1424
1462 1461 1460 1459 1459 1458 1457 1457 1456 1455 1454 1453 1452 1451 1451 1450 1450 1450 1449 1448 1448 1446 1445 1444 1443 1442 1441 1440 1439 1438 1436 1435 1434 1433 1432 1431 1429 1428 1427 1425 1424 1422 1422 1420
1459 1459 1458 1457 1456 1455 1455 1454 1453 1452 1451 1450 1449 1449 1448 1447 1447 1447 1446 1445 1444 1443 1442 1441 1440 1439 1438 1437 1436 1435 1433 1432 1431 1430 1429 1428 1427 1426 1424 1423 1421 1419 1418 1417
1456 1456 1455 1454 1453 1452 1452 1451 1450 1449 1448 1447 1446 1446 1445 1445 1444 1444 1443 1442 1441 1440 1439 1438 1437 1436 1435 1434 1432 1431 1430 1429 1428 1427 1426 1425 1424 1423 1421 1420 1419 1417 1415 1414
1454 1452 1452 1451 1450 1449 1449 1448 1447 1446 1445 1444 1443 1443 1442 1442 1441 1441 1440 1439 1438 1437 1436 1434 1433 1432 1431 1430 1429 1428 1427 1426 1425 1424 1423 1422 1421 1420 1419 1418 1416 1414 1413 1412
1451 1450 1449 1448 1447 1447 1446 1445 1445 1444 1442 1442 1441 1440 1440 1439 1438 1437 1437 1436 1435 1433 1432 1431 1430 1429 1428 1427 1426 1425 1424 1423 1422 1421 1420 1419 1419 1418 1416 1415 1414 1412 1410 1409
1448 1448 1447 1446 1445 1444 1444 1443 1442 1441 1440 1439 1438 1437 1437 1436 1435 1434 1433 1432 1431 1429 1429 1428 1427 1426 1425 1424 1423 1422 1421 1420 1419 1418 1418 1417 1416 1414 1413 1412 1411 1409 1407 1406
1446 1445 1444 1443 1443 1442 1441 1440 1439 1438 1437 1437 1436 1435 1434 1433 1433 1431 1430 1429 1428 1427 1426 1425 1424 1423 1422 1421 1420 1419 1418 1417 1416 1415 1414 1413 1412 1411 1410 1409 1407 1406 1404 1403
1443 1443 1442 1441 1440 1439 1438 1437 1436 1435 1435 1434 1433 1432 1431 1431 1430 1428 1426 1425 1425 1424 1423 1422 1421 1420 1419 1418 1417 1416 1415 1414 1413 1412 1411 1410 1409 1408 1407 1405 1404 1402 1401 1399
1441 1441 1440 1439 1438 1437 1436 1435 1434 1433 1432 1432 1431 1430 1429 1427 1426 1425 1424 1423 1422 1421 1420 1419 1418 1417 1416 1415 1414 1413 1412 1411 1409 1408 1407 1406 1405 1404 1403 1402 1400 1399 1397 1396
1439 1439 1438 1437 1436 1435 1434 1433 1432 1431 1430 1429 1428 1427 1426 1424 1423 1422 1421 1420 1419 1418 1417 1415 1415 1414 1413 1412 1410 1409 1408 1407 1406 1405 1404 1403 1401 1400 1399 1398 1396 1395 1394 1392
1437 1437 1436 1435 1434 1433 1432 1431 1430 1429 1428 1427 1426 1425 1423 1422 1421 1420 1418 1417 1416 1415 1413 1412 1411 1410 1409 1408 1406 1405 1404 1403 1402 1401 1400 1399 1397 1396 1395 1394 1392 1391 1390 1388
1436 1435 1434 1433 1432 1431 1430 1429 1428 1427 1426 1425 1423 1422 1421 1420 1418 1416 1415 1414 1413 1411 1410 1409 1408 1407 1406 1404 1403 1401 1400 1399 1398 1397 1396 1394 1393 1392 1391 1390 1388 1387 1385 1384
1434 1433 1432 1431 1430 1429 1428 1427 1426 1424 1423 1422 1421 1420 1418 1417 1415 1414 1412 1411 1409 1408 1407 1405 1404 1403 1401 1400 1399 1398 1396 1395 1394 1393 1391 1390 1389 1388 1387 1385 1384 1383 1381 1380
1432 1431 1430 1429 1428 1427 1426 1425 1424 1422 1421 1419 1418 1417 1416 1414 1412 1411 1409 1408 1406 1405 1403 1402 1400 1399 1398 1396 1395 1394 1392 1391 1390 1389 1387 1386 1385 1384 1383 1381 1380 1378 1377 1376